Terug naar catalogus

COSMOS 2251 DEB

ActiefLEO
NORAD 33825·DEBRIS·🇷🇺 Russia

Gelanceerd Jun 16, 1993 vanaf Plesetsk Cosmodrome

Loading…

Volgende Passages (komende 24 uur)

TLE

VersSource: Space-Track

Epoch: Sep 14, 2026, 15:20 UTC

1 33825U 93036BS  26257.63939087  .00004917  00000-0  72653-3 0  9996
2 33825  73.9820 209.2956 0074690 110.6663  63.1134 14.73607450929391

Volg COSMOS 2251 DEB in realtime met AllMySat

Download on the App Store